Powrót do katalogu

STARLINK-32327

AktywnyŁącznośćVLEO
NORAD 61641·PAYLOAD·🇺🇸 United States

Wystrzelony Oct 23, 2024 z Cape Canaveral Space Force Station

Loading…

Następne Przeloty (najbliższe 24 godziny)

TLE

ŚwieżeSource: CelesTrak SupGP

Epoka: Sep 14, 2026, 21:43 UTC

1 61641C 24191W   26257.90534722 -.00025212  00000+0 -91316-3 0  2572
2 61641  43.0006 165.7383 0001340 269.8139 193.1246 15.27591808    15

Śledź STARLINK-32327 w czasie rzeczywistym z AllMySat

Download on the App Store